Pedro Green current weather conditions

sailwx.info

Wind from 230 at 9 knots

Air temperature 26.7° C
Dewpoint 22.8° C

Last reported at 2020-Jul-10 03:52 UTC.
Time now 2020-Jul-10 04:45 UTC

Location: N 26°29' W 080°31'.
View on Google Maps.

See reports from other nearby stations

  
Tides and Currents Weather Stations Pressure Air Temp Water Temp Dewpoint Dewpoint Depression Visibility Wind Speed Wind Dir Waves Ship Positions
date/time (UTC)wind fromknots sea level pressurealtimeterstation pressurevisibilityair tempwater tempwave heightnotes
2020-Jul-10 03:52 230 9 26.7
2020-Jul-10 03:47 250 10 26.8
2020-Jul-10 03:42 242 5 26.8
2020-Jul-10 03:37 257 10 26.9
2020-Jul-10 03:32 247 8 26.8
2020-Jul-10 03:27 245 11 26.9
2020-Jul-10 03:22 229 9 26.9
2020-Jul-10 03:17 236 9 26.8
2020-Jul-10 03:12 231 10 26.8
2020-Jul-10 03:07 238 9 26.9
2020-Jul-10 03:02 235 9 26.8
2020-Jul-10 02:57 230 7 26.8
2020-Jul-10 02:52 233 7 26.8
2020-Jul-10 02:47 230 8 26.9
2020-Jul-10 02:42 230 9 26.8
2020-Jul-10 02:37 232 11 27.0
2020-Jul-10 02:32 241 9 26.9
2020-Jul-10 02:27 246 10 27.0
2020-Jul-10 02:22 225 10 27.0
2020-Jul-10 02:17 257 9 27.1
2020-Jul-10 02:12 256 13 27.1
2020-Jul-10 02:07 254 12 27.1
2020-Jul-10 02:02 257 10 27.1
2020-Jul-10 01:57 218 9 27.0
2020-Jul-10 01:52 243 8 27.0
2020-Jul-10 01:47 238 4 27.1
2020-Jul-10 01:42 243 9 27.0
2020-Jul-10 01:37 270 6 27.1
2020-Jul-10 01:32 240 8 27.0
2020-Jul-10 01:27 246 9 27.2
2020-Jul-10 01:22 254 10 27.2
2020-Jul-10 01:17 230 10 27.0
2020-Jul-10 01:12 238 13 27.1
2020-Jul-10 01:07 259 12 27.2
2020-Jul-10 01:02 255 13 27.2
2020-Jul-10 00:57 255 12 27.2
2020-Jul-10 00:52 250 9 27.2
2020-Jul-10 00:47 256 11 27.3
2020-Jul-10 00:42 241 10 27.3
2020-Jul-10 00:37 226 9 27.3
2020-Jul-10 00:32 250 12 27.3
2020-Jul-10 00:27 260 10 27.3
2020-Jul-10 00:22 256 9 27.2
2020-Jul-10 00:17 259 9 27.1
2020-Jul-10 00:12 260 11 27.0
2020-Jul-10 00:07 241 7 27.2
2020-Jul-10 00:02 224 8 27.2
2020-Jul-09 23:57 225 6 27.3
2020-Jul-09 23:52 267 11 27.4
2020-Jul-09 23:46 238 8 27.5
2020-Jul-09 23:41 255 11 27.4
2020-Jul-09 23:36 258 9 27.5
2020-Jul-09 23:31 253 13 27.3
2020-Jul-09 23:26 253 8 27.5
2020-Jul-09 23:21 257 11 27.4
2020-Jul-09 23:16 215 9 27.5
2020-Jul-09 23:11 246 8 27.5
2020-Jul-09 23:06 246 10 27.5
2020-Jul-09 23:01 252 9 27.5
2020-Jul-09 22:56 252 10 27.5
2020-Jul-09 22:51 244 10 27.6
2020-Jul-09 22:46 244 9 27.6
2020-Jul-09 22:41 250 10 27.7
2020-Jul-09 22:36 234 14 27.7
2020-Jul-09 22:31 242 13 27.7
2020-Jul-09 22:26 242 7 27.8
2020-Jul-09 22:21 260 13 27.7
2020-Jul-09 22:16 236 7 27.8
2020-Jul-09 22:11 246 10 27.8
2020-Jul-09 22:06 234 5 27.8
2020-Jul-09 22:01 230 7 27.8
2020-Jul-09 21:16 276 12 28.7
2020-Jul-09 21:11 248 11 28.4
2020-Jul-09 21:06 259 9 28.8
2020-Jul-09 21:01 263 13 28.4
2020-Jul-09 20:56 232 11 28.4
2020-Jul-09 20:51 270 18 28.7
2020-Jul-09 20:46 269 17 28.6
2020-Jul-09 20:41 256 12 28.9
2020-Jul-09 20:36 251 7 29.5
2020-Jul-09 20:31 239 13 29.0
2020-Jul-09 20:26 225 8 29.4
2020-Jul-09 20:21 267 10 29.2
2020-Jul-09 19:26 260 10 29.9
2020-Jul-09 19:21 248 17 29.3
2020-Jul-09 19:16 251 10 30.2
2020-Jul-09 19:11 266 13 29.9
2020-Jul-09 19:06 273 10 29.9
2020-Jul-09 19:01 264 7 30.2
2020-Jul-09 18:55 234 8 30.5
2020-Jul-09 18:50 280 10 30.0
2020-Jul-09 18:45 266 10 29.8
2020-Jul-09 18:40 277 15 29.5
2020-Jul-09 18:35 242 12 29.6
2020-Jul-09 18:30 265 9 29.9
2020-Jul-09 18:25 281 14 29.9
2020-Jul-09 18:20 282 12 29.3
2020-Jul-09 18:15 259 11 29.8
2020-Jul-09 18:10 231 14 29.7
2020-Jul-09 18:05 253 14 29.8
2020-Jul-09 18:00 293 9 29.9
2020-Jul-09 03:57 274 5 27.2
2020-Jul-09 03:52 258 13 27.1
2020-Jul-09 03:47 260 10 27.0
2020-Jul-09 03:42 239 8 27.0
2020-Jul-09 03:37 279 12 27.0
2020-Jul-09 03:32 269 6 27.1
2020-Jul-09 03:27 258 11 27.2
2020-Jul-09 03:22 296 11 27.1
2020-Jul-09 02:27 270 12 27.0
2020-Jul-09 02:22 268 12 27.0
2020-Jul-09 02:17 269 12 27.1
2020-Jul-09 02:12 249 8 27.0
2020-Jul-09 02:07 270 10 27.1
2020-Jul-09 02:02 245 6 26.9
2020-Jul-09 01:57 238 7 27.0
2020-Jul-09 01:52 259 11 27.1
2020-Jul-09 01:47 247 7 27.1
2020-Jul-09 01:42 266 9 27.1
2020-Jul-09 01:37 232 7 26.9
2020-Jul-09 01:32 239 5 26.8
2020-Jul-09 01:27 234 3 26.8
2020-Jul-09 01:22 255 8 26.8
2020-Jul-09 01:17 243 6 26.8
2020-Jul-09 01:12 239 4 27.1
2020-Jul-09 01:07 262 8 27.2
2020-Jul-09 01:02 245 7 27.2
2020-Jul-09 00:57 269 5 27.2
2020-Jul-09 00:52 277 9 27.1
2020-Jul-09 00:42 273 8 27.0
2020-Jul-09 00:37 278 7 27.3
2020-Jul-09 00:32 283 7 27.3
2020-Jul-09 00:27 281 12 27.3
2020-Jul-09 00:22 272 8 27.3
2020-Jul-09 00:17 260 7 27.4
2020-Jul-09 00:12 287 9 27.2
2020-Jul-09 00:06 299 5 27.3
2020-Jul-09 00:01 286 9 27.4
2020-Jul-08 23:56 289 5 27.4
2020-Jul-08 23:51 273 6 27.5
2020-Jul-08 23:46 285 12 27.5
2020-Jul-08 23:41 288 12 27.5
2020-Jul-08 23:36 294 10 27.5
2020-Jul-08 23:31 296 10 27.5
2020-Jul-08 23:26 302 10 27.6
2020-Jul-08 23:21 297 9 27.6
2020-Jul-08 23:16 294 12 27.6
2020-Jul-08 23:11 293 14 27.6
2020-Jul-08 23:06 295 9 27.6
2020-Jul-08 23:01 292 11 27.6
2020-Jul-08 21:21 293 9 28.1
2020-Jul-08 21:16 272 10 28.1
2020-Jul-08 21:11 256 11 28.1
2020-Jul-08 21:06 287 6 28.2
2020-Jul-08 21:01 246 5 28.3
2020-Jul-08 20:56 262 11 28.2
2020-Jul-08 20:51 260 12 28.2
2020-Jul-08 20:46 238 10 28.3
2020-Jul-08 20:41 254 8 28.3
2020-Jul-08 20:36 261 5 28.4
2020-Jul-08 20:31 276 12 28.4
2020-Jul-08 20:26 277 9 28.5
2020-Jul-08 20:21 266 10 28.6
2020-Jul-08 18:45 273 14 28.1
2020-Jul-08 18:40 290 10 28.1
2020-Jul-08 18:35 270 14 28.0
2020-Jul-08 18:30 275 12 28.0
2020-Jul-08 18:25 270 14 27.9
2020-Jul-08 18:20 267 6 27.9
2020-Jul-08 18:15 265 14 27.9
2020-Jul-08 18:10 292 12 27.7
2020-Jul-08 18:05 276 13 27.4
2020-Jul-08 18:00 303 13 27.1
2020-Jul-08 16:55 275 10 27.9
2020-Jul-08 16:50 285 12 29.4
2020-Jul-08 16:45 259 7 29.0
2020-Jul-08 16:40 280 9 28.8
2020-Jul-08 16:35 287 11 28.9
2020-Jul-08 16:30 288 11 28.5
2020-Jul-08 16:25 305 9 28.5
2020-Jul-08 16:20 337 3 29.1
2020-Jul-08 16:15 014 2 29.6
2020-Jul-08 16:10 319 7 29.5
2020-Jul-08 16:05 337 3 29.4
2020-Jul-08 16:00 293 2 29.8
2020-Jul-08 15:55 353 1 29.7
2020-Jul-08 15:50 342 2 29.4
2020-Jul-08 15:45 314 4 29.3
2020-Jul-08 15:40 308 11 30.1
2020-Jul-08 15:35 292 10 29.9
2020-Jul-08 15:30 307 7 29.8
2020-Jul-08 15:25 304 9 29.5
2020-Jul-08 15:20 311 11 29.2
2020-Jul-08 15:15 299 16 29.4
2020-Jul-08 15:10 303 10 29.5
2020-Jul-08 15:05 289 7 29.5
2020-Jul-08 15:00 309 13 29.4
2020-Jul-08 06:48 290 6 27.2
2020-Jul-08 06:43 302 9 27.2
2020-Jul-08 06:38 294 11 27.0
2020-Jul-08 06:33 290 7 26.8
2020-Jul-08 06:28 241 6 26.7
2020-Jul-08 06:23 254 5 26.6
2020-Jul-08 06:18 247 7 26.8
2020-Jul-08 06:13 290 11 26.9
2020-Jul-08 06:08 277 11 26.9
2020-Jul-08 06:03 289 12 26.7
2020-Jul-08 04:58 285 15 26.7
2020-Jul-08 04:53 279 16 26.8
2020-Jul-08 04:48 292 12 26.9
2020-Jul-08 04:43 289 17 26.9
2020-Jul-08 04:38 286 11 26.9
2020-Jul-08 04:33 281 13 26.9
2020-Jul-08 04:28 290 9 26.9
2020-Jul-08 04:23 291 12 26.4
2020-Jul-08 04:18 271 13 26.4
2020-Jul-08 04:13 231 8 26.3
2020-Jul-08 04:07 254 11 26.2
2020-Jul-08 04:02 251 7 26.0